Shirley, NY

12:38 AM EST on February 25, 2017 (GMT -0500)
Brookhaven

Weather History for KHWV - August, 2013

Change the Weather History Date:

Friday, August 23, 2013

  Actual Average (KISP) Record (KISP)
Temperature  
Mean Temperature 72 °F -  
Max Temperature 81 °F 78 °F 91 °F (1989)
Min Temperature 63 °F 63 °F 54 °F (2004)
Cooling Degree Days 7    
Growing Degree Days 22 (Base 50)    
Moisture  
Dew Point 63 °F    
Average Humidity 75    
Maximum Humidity 97    
Minimum Humidity 43    
Precipitation  
Precipitation 0.01 in - - ()
Sea Level Pressure  
Sea Level Pressure 29.97 in    
Wind  
Wind Speed 5 mph (NNW)    
Max Wind Speed 16 mph    
Max Gust Speed 22 mph    
Visibility 9 miles    
Events      
Averages and records for this station are not official NWS values.
T = Trace of Precipitation, MM = Missing Value Source: NWS Daily Summary

Daily Weather History Graph

Daily Weather History Graph

Search for Another Location

Airport or City:

Trip Planner

Search our weather history database for the weather conditions in past years. The results will help you decide how hot, cold, wet, or windy it might be!

Date:

Astronomy

Aug. 23, 2013 Rise Set
Actual Time 6:09 AM EDT 7:37 PM EDT
Civil Twilight 5:40 AM EDT 8:06 PM EDT
Nautical Twilight 5:06 AM EDT 8:40 PM EDT
Astronomical Twilight 4:29 AM EDT 9:17 PM EDT
Moon 8:53 PM EDT (8/23) 9:03 AM EDT (8/23)
Length of Visible Light 14h 25m
Length of Day
13h 27m
Waning Gibbous, 91% of the Moon is Illuminated
Aug 23
Waning Gibbous
Aug 28
Last Quarter
Sep 5
New
Sep 12
First Quarter
Sep 19
Full

Hourly Weather History & Observations

Time (EDT) Temp. Heat Index Dew Point Humidity Pressure Visibility Wind Dir Wind Speed Gust Speed Precip Events Conditions
12:56 AM 72.0 °F - 70.0 °F 93% 29.88 in 8.0 mi SW 3.5 mph - N/A   Clear
1:56 AM 71.1 °F - 69.1 °F 93% 29.87 in 5.0 mi WSW 4.6 mph - N/A   Clear
2:56 AM 70.0 °F - 69.1 °F 97% 29.87 in 4.0 mi WNW 4.6 mph - N/A   Clear
3:56 AM 70.0 °F - 68.0 °F 93% 29.86 in 5.0 mi NW 4.6 mph - 0.01 in   Partly Cloudy
4:56 AM 69.1 °F - 68.0 °F 96% 29.88 in 7.0 mi NNW 5.8 mph - N/A   Clear
5:56 AM 69.1 °F - 66.9 °F 93% 29.89 in 8.0 mi NNW 4.6 mph - N/A   Overcast
6:56 AM 68.0 °F - 66.0 °F 93% 29.92 in 8.0 mi NNW 5.8 mph - N/A   Clear
7:56 AM 70.0 °F - 64.9 °F 84% 29.94 in 10.0 mi NNW 8.1 mph - N/A   Clear
8:56 AM 72.0 °F - 64.9 °F 78% 29.95 in 10.0 mi NNW 9.2 mph - N/A   Clear
9:56 AM 73.0 °F - 63.0 °F 71% 29.97 in 10.0 mi North 10.4 mph - N/A   Clear
10:56 AM 75.0 °F - 61.0 °F 62% 29.97 in 10.0 mi Variable 6.9 mph - N/A   Clear
11:56 AM 75.9 °F - 61.0 °F 60% 29.97 in 10.0 mi North 8.1 mph 18.4 mph N/A   Clear
12:56 PM 80.1 °F 80.4 °F 57.0 °F 45% 29.97 in 10.0 mi NNW 16.1 mph 21.9 mph N/A   Clear
1:56 PM 80.1 °F 80.2 °F 55.9 °F 43% 29.98 in 10.0 mi North 8.1 mph 18.4 mph N/A   Clear
2:56 PM 80.1 °F 80.6 °F 57.9 °F 47% 29.99 in 10.0 mi North 4.6 mph - N/A   Clear
3:56 PM 78.1 °F - 57.9 °F 50% 29.98 in 10.0 mi North 3.5 mph - N/A   Clear
4:56 PM 79.0 °F - 59.0 °F 50% 29.98 in 10.0 mi Variable 3.5 mph - N/A   Clear
5:56 PM 78.1 °F - 57.9 °F 50% 29.99 in 10.0 mi Calm Calm - N/A   Clear
6:56 PM 73.0 °F - 63.0 °F 71% 30.00 in 10.0 mi Calm Calm - N/A   Partly Cloudy
7:56 PM 72.0 °F - 64.9 °F 78% 30.03 in 10.0 mi SE 3.5 mph - N/A   Overcast
8:56 PM 69.1 °F - 63.0 °F 81% 30.06 in 10.0 mi Calm Calm - N/A   Mostly Cloudy
9:56 PM 68.0 °F - 62.1 °F 81% 30.07 in 10.0 mi Calm Calm - N/A   Clear
10:56 PM 64.0 °F - 61.0 °F 90% 30.09 in 10.0 mi Calm Calm - N/A   Clear
11:56 PM 63.0 °F - 61.0 °F 93% 30.11 in 10.0 mi Calm Calm - N/A   Clear